This demonstration page uses our WeatherBlox Daily Observations layout. Learn more.

Left ArrowRight Arrow

Hourly Observations for November 7, 2018

Temp ( °F °C ) Dew Point ( °F °C ) Humidity (%) Winds ( mph kmh ) Pressure ( in mb ) Visibility ( mi km ) Precip ( " mm )
12:53 am 00:53 Clear 52 11.1 45 7.2 77 77 Calm 29.83 1010 10 16 0.00 0.00
1:53 am 01:53 Clear 51 10.6 44 6.7 77 77 SE 3 6 29.83 1010 10 16 0.00 0.00
2:53 am 02:53 Clear 51 10.6 44 6.7 77 77 Calm 29.82 1010 10 16 0.00 0.00
3:53 am 03:53 Clear 47 8.3 43 6.1 86 86 Calm 29.83 1010 10 16 0.00 0.00
4:53 am 04:53 Clear 46 7.8 43 6.1 89 89 N 6 9 29.84 1011 10 16 0.00 0.00
5:53 am 05:53 Clear 45 7.2 42 5.6 90 90 NNW 5 7 29.86 1011 10 16 0.00 0.00
6:53 am 06:53 Clear 45 7.2 42 5.6 90 90 NNW 5 7 29.90 1012 10 16 0.00 0.00
7:53 am 07:53 Sunny 47 8.3 43 6.1 86 86 N 6 9 29.93 1013 10 16 0.00 0.00
8:53 am 08:53 Sunny 55 12.8 45 7.2 69 69 N 10 17 29.95 1014 10 16 0.00 0.00
9:53 am 09:53 Sunny 58 14.4 48 8.9 70 70 NNE 16 26 29.99 1016 10 16 0.00 0.00
10:53 am 10:53 Sunny 59 15 48 8.9 67 67 N 14 22 30.00 1016 10 16 0.00 0.00
11:53 am 11:53 Sunny 60 15.6 48 8.9 65 65 N 17 28 29.99 1016 10 16 0.00 0.00
12:53 pm 12:53 Sunny 61 16.1 48 8.9 63 63 NE 13 20 29.99 1016 10 16 0.00 0.00
1:53 pm 13:53 Sunny 62 16.7 47 8.3 58 58 NNE 12 19 29.96 1015 10 16 0.00 0.00
2:53 pm 14:53 Sunny 63 17.2 46 7.8 54 54 NE 13 20 29.95 1014 10 16 0.00 0.00
3:53 pm 15:53 Sunny 63 17.2 47 8.3 56 56 NE 13 20 29.95 1014 10 16 0.00 0.00
4:53 pm 16:53 Sunny 60 15.6 46 7.8 60 60 NE 10 17 29.96 1014 10 16 0.00 0.00
5:53 pm 17:53 Sunny 54 12.2 46 7.8 75 75 NE 12 19 29.98 1015 10 16 0.00 0.00
6:53 pm 18:53 Clear 51 10.6 45 7.2 80 80 NE 7 11 30.01 1016 10 16 0.00 0.00
7:42 pm 19:42 Mostly Cloudy 51 10.6 46 7.8 83 83 NE 8 13 30.06 1018 10 16 0.00 0.00
7:53 pm 19:53 Partly Cloudy 51 10.6 46 7.8 83 83 ENE 7 11 30.01 1016 10 16 0.00 0.00
8:24 pm 20:24 Mostly Cloudy 51 10.6 46 7.8 83 83 ENE 10 17 30.06 1018 10 16 0.00 0.00
8:53 pm 20:53 Cloudy 52 11.1 46 7.8 80 80 ENE 8 13 30.01 1016 10 16 0.00 0.00
9:53 pm 21:53 Cloudy 52 11.1 46 7.8 80 80 E 8 13 30.01 1016 10 16 0.00 0.00
10:50 pm 22:50 Partly Cloudy 50 10 45 7 82 82 ENE 3 6 30.09 1019 10 16 0.00 0.00
10:53 pm 22:53 Mostly Clear 50 10 45 7.2 83 83 ENE 5 7 30.02 1017 10 16 0.00 0.00
11:53 pm 23:53 Clear 47 8.3 44 6.7 90 90 NE 6 9 30.01 1016 10 16 0.00 0.00

Powered by AerisWeather